Location: Lombard
(41.8800°N, 88.0080°W)
Time: 09:23:18
(UTC-06:00)

N. Korean satellite - Visible Passes

Search period start: 03 December 2022 00:00
Search period end: 13 December 2022 00:00
Orbit: 421 x 453 km, 97.3° (Epoch: 02 December)

Date Brightness Start Highest point End Pass type
(mag) Time Alt. Az. Time Alt. Az. Time Alt. Az.
03 Dec 9.3 04:24:10 10° NE 04:26:35 18° E 04:28:58 10° SE visible
03 Dec 7.5 05:56:16 10° NNW 05:59:04 24° WNW 06:01:49 10° SW visible
04 Dec 6.2 05:16:56 10° N 05:20:21 81° WNW 05:23:42 10° SSW visible
04 Dec 9.7 17:20:10 10° SW 17:22:11 15° W 17:24:14 10° NW visible
05 Dec 8.5 04:38:26 10° NE 04:41:23 27° E 04:44:19 10° SSE visible
05 Dec 8.0 06:11:31 10° NNW 06:13:40 16° WNW 06:15:48 10° WSW visible
06 Dec 6.5 05:31:41 10° N 05:34:59 49° WNW 05:38:13 10° SSW visible
07 Dec 7.6 04:52:47 10° NNE 04:56:02 43° E 04:59:14 10° S visible
07 Dec 8.4 06:27:13 10° NW 06:28:06 11° WNW 06:28:59 10° W visible
07 Dec 8.7 16:54:40 10° SSW 16:57:42 30° W 17:00:46 10° NNW visible
08 Dec 9.7 04:15:06 10° ENE 04:16:50 13° E 04:18:34 10° ESE visible
08 Dec 7.1 05:46:24 10° N 05:49:26 31° WNW 05:52:25 10° SW visible
09 Dec 6.5 05:07:08 10° NNE 05:10:31 71° ESE 05:13:49 10° S visible
09 Dec 9.5 17:09:37 10° SW 17:12:11 20° W 17:14:47 10° NW visible
10 Dec 9.0 04:28:45 10° NE 04:31:19 20° E 04:33:51 10° SE visible
10 Dec 7.6 06:01:08 10° NNW 06:03:43 21° WNW 06:06:16 10° WSW visible
11 Dec 6.2 05:21:26 10° N 05:24:48 71° WNW 05:28:06 10° SSW visible
11 Dec 9.8 17:24:48 10° WSW 17:26:33 13° W 17:28:20 10° WNW visible
12 Dec 8.3 04:42:36 10° NNE 04:45:37 30° E 04:48:35 10° SSE visible
12 Dec 8.1 06:15:58 10° NNW 06:17:50 14° WNW 06:19:40 10° W visible
